This is the latest recevied weather packets stored in our database for station/object K5FEP. If no packets are shown the sender has not sent any weather packets the latest 10 day(s).
| Time | Temp. | Humidity | Pressure | Rain* | Wind** | Luminosity | Snow |
|---|---|---|---|---|---|---|---|
| 1777473107 | 18.33° C | 79% | 1012.2 hPa | 0 mm | - | 228 W/m² | - |
| 1777472804 | 18.33° C | 79% | 1012 hPa | 0 mm | - | 221 W/m² | - |
| 1777472500 | 17.78° C | 82% | 1012.1 hPa | 0 mm | - | 190 W/m² | - |
| 1777472198 | 17.78° C | 82% | 1012 hPa | 0 mm | - | 164 W/m² | - |
| 1777471893 | 17.78° C | 82% | 1012 hPa | 0 mm | - | 145 W/m² | - |
| 1777471590 | 17.78° C | 81% | 1011.9 hPa | 0 mm | - | 145 W/m² | - |
| 1777471287 | 18.33° C | 81% | 1012.3 hPa | 0 mm | - | 168 W/m² | - |
| 1777470983 | 18.33° C | 81% | 1012.4 hPa | 0 mm | - | 215 W/m² | - |
| 1777470680 | 17.78° C | 80% | 1012.3 hPa | 0 mm | - | 202 W/m² | - |
| 1777470375 | 17.78° C | 81% | 1012.5 hPa | 0 mm | - | 197 W/m² | - |
| 1777470073 | 17.78° C | 81% | 1012.4 hPa | 0 mm | - | 209 W/m² | - |
| 1777469769 | 17.78° C | 81% | 1012.7 hPa | 0 mm | - | 212 W/m² | - |
| 1777469465 | 17.78° C | 81% | 1012.5 hPa | 0 mm | - | 198 W/m² | - |
| 1777469165 | 17.78° C | 81% | 1012.5 hPa | 0 mm | - | 188 W/m² | - |
| 1777468865 | 17.78° C | 81% | 1012.7 hPa | 0 mm | - | 190 W/m² | - |
| 1777468562 | 17.78° C | 82% | 1012.6 hPa | 0 mm | - | 216 W/m² | - |
| 1777468259 | 17.78° C | 81% | 1012.6 hPa | 0 mm | - | 239 W/m² | - |
| 1777467955 | 17.22° C | 83% | 1012.8 hPa | 0 mm | - | 235 W/m² | - |
| 1777467651 | 17.22° C | 82% | 1013 hPa | 0 mm | - | 230 W/m² | - |
| 1777467346 | 17.22° C | 83% | 1013.3 hPa | 0 mm | - | 221 W/m² | - |
| 1777467042 | 17.22° C | 83% | 1013.3 hPa | 0 mm | - | 221 W/m² | - |
| 1777466740 | 17.22° C | 84% | 1013.3 hPa | 0 mm | - | 214 W/m² | - |
| 1777466438 | 16.67° C | 83% | 1013.6 hPa | 0 mm | - | 186 W/m² | - |
| 1777466133 | 17.22° C | 83% | 1013.6 hPa | 0 mm | - | 177 W/m² | - |
| 1777465830 | 16.67° C | 84% | 1013.7 hPa | 0 mm | - | 216 W/m² | - |
* Rain latest hour (hover to see other rain measurements)
** Current wind speed in m/s (hover to see current wind gust speed)